Wind_Gust
17 17 19 19 18 18 18 18 18 18 17 17 16 17 16 16 16 14 15 14 14 13 12 11 11 10 10 10 9 8 9 10 10 13 13 13 12 12 13 13 13 12 11 12 12 12 14 16 18 18 16 18 20 20 20 20 20 21 20 21 22 22 24 26 29 29 23 19 24 24 22 22 27 23 27 26 26 26 19 24 25 24 25 27 27
18 18 19 20 19 19 18 17 18 18 18 18 16 17 16 16 15 15 14 14 14 14 13 11 11 11 10 10 9 10 10 10 11 12 13 12 10 10 11 12 12 12 12 13 13 14 13 15 17 18 18 19 19 21 21 21 21 21 22 23 23 23 22 28 28 29 30 20 22 22 24 21 27 22 24 24 24 23 25 25 25 25 27 26 27
19 20 20 18 19 19 19 19 19 18 18 17 17 17 16 15 15 15 15 14 14 13 13 12 12 11 11 10 10 9 10 11 10 12 11 11 11 11 12 12 13 14 14 14 15 14 15 15 16 16 16 17 18 19 18 20 20 21 21 22 22 22 22 22 26 28 28 27 23 25 22 23 24 24 23 25 25 26 27 27 26 25 24 24 26
19 17 16 16 17 17 19 20 20 20 20 19 18 16 16 16 16 15 15 13 15 13 12 13 13 12 11 11 11 10 10 10 10 10 11 11 12 13 12 12 13 14 14 15 16 16 16 16 16 15 15 17 17 17 17 16 17 17 18 18 18 19 18 19 20 23 25 29 23 24 25 25 26 23 23 24 26 25 25 26 24 26 25 26 26
19 19 18 19 18 16 16 17 19 19 19 19 18 18 17 17 15 15 14 14 14 14 14 13 13 13 11 12 11 10 10 10 11 10 10 10 12 13 14 15 14 15 14 15 13 16 16 16 17 16 16 17 16 16 16 15 17 17 18 18 18 18 18 18 20 21 25 28 29 25 23 25 26 25 24 26 25 25 23 24 23 24 24 24 25
23 23 21 25 24 21 20 19 21 22 22 20 19 19 18 17 16 14 16 16 15 14 14 14 14 13 13 12 10 10 10 10 10 10 11 12 12 13 14 14 15 16 16 16 16 16 16 16 16 16 16 16 16 15 15 15 16 17 16 17 18 18 18 18 20 21 22 25 25 29 22 25 24 23 21 22 25 26 25 25 24 24 24 24 24
24 22 23 23 24 26 27 25 24 24 24 22 20 19 18 17 18 17 15 15 16 15 15 14 12 12 11 10 11 10 10 10 9 10 11 12 13 14 14 15 15 16 16 16 17 16 17 17 16 15 15 15 15 15 15 14 15 16 16 16 17 17 18 19 20 21 22 25 25 24 26 22 22 24 22 20 22 24 25 25 24 23 22 23 24
24 24 25 24 25 25 26 25 24 23 22 21 19 16 14 15 15 14 14 16 16 16 15 15 13 12 11 11 10 9 10 10 9 11 11 12 13 14 14 15 16 16 16 17 16 16 16 15 15 15 14 14 14 15 14 15 15 15 15 15 16 18 19 19 20 21 22 22 24 24 23 24 21 21 22 20 22 21 21 22 23 23 23 23 23
25 26 26 28 28 26 25 25 24 23 21 20 17 16 15 13 13 14 15 15 15 16 15 15 14 13 13 11 12 10 9 8 9 10 12 13 12 14 14 15 15 16 17 17 16 15 14 14 13 12 14 14 14 13 12 14 16 15 15 15 16 17 18 18 19 20 21 22 25 24 24 24 22 21 21 20 21 23 22 22 25 24 24 24 23
22 24 25 25 25 25 26 23 22 22 20 19 17 16 16 16 15 15 16 16 15 15 15 14 14 13 13 13 11 9 9 9 13 10 9 15 15 15 14 15 16 16 16 15 14 13 12 12 13 15 13 12 12 11 9 9 12 16 18 17 18 18 19 20 21 22 22 23 24 25 26 26 24 21 21 22 22 22 22 21 24 23 23 24 23
22 23 25 23 22 23 22 23 24 25 20 18 16 16 16 16 16 16 16 16 15 16 16 15 15 14 13 12 11 10 10 11 12 8 7 6 12 15 15 15 15 14 13 13 13 12 12 11 10 11 11 11 12 10 8 10 10 10 11 13 15 19 20 23 24 23 25 26 26 26 27 29 27 25 23 24 22 22 22 23 23 23 23 24 26
25 25 25 24 24 24 23 24 24 23 22 22 19 18 16 16 16 18 17 18 17 16 18 17 16 14 12 12 11 11 10 13 10 9 7 6 7 14 16 15 12 13 12 12 12 11 11 10 10 10 10 12 14 13 14 12 12 10 11 12 14 15 14 20 22 24 23 26 27 26 27 29 30 27 27 24 24 23 23 22 24 24 24 24 25
24 24 24 23 22 24 24 24 25 25 24 24 20 18 18 17 17 18 19 20 19 19 19 17 16 15 14 14 12 12 12 13 11 9 8 5 6 12 18 12 12 12 11 11 11 11 10 10 10 11 10 12 12 13 15 16 11 13 15 16 18 19 16 14 14 20 22 24 25 27 26 27 30 28 23 25 23 26 25 25 23 24 25 26 26
22 22 21 22 23 23 23 24 25 23 22 20 17 18 18 20 19 20 20 21 21 20 19 18 17 16 15 13 13 12 12 15 12 10 8 6 7 10 16 11 12 12 10 11 10 11 9 10 10 11 11 12 12 14 16 17 18 18 17 17 17 17 15 16 16 18 19 22 22 25 24 22 29 27 25 24 26 27 26 26 23 25 26 29 27
19 20 21 21 21 20 20 21 21 18 18 18 19 20 21 20 21 22 23 22 22 23 21 20 18 16 15 14 13 13 13 15 12 10 7 6 8 11 15 10 12 10 10 10 10 10 10 10 10 10 11 12 14 15 17 17 18 18 18 17 17 18 18 18 17 17 18 19 21 24 26 26 27 28 28 26 25 26 26 27 27 27 30 29 31
15 17 20 20 20 20 20 21 21 20 20 21 22 22 22 23 24 23 21 21 22 21 20 19 18 17 16 15 14 14 17 15 12 10 8 7 8 17 15 11 12 11 10 10 10 10 9 9 9 10 11 12 14 10 13 18 17 17 16 16 17 17 18 14 14 15 20 22 23 25 26 26 22 29 29 29 27 26 26 26 24 25 27 28 31
14 15 17 18 17 19 19 19 19 19 20 21 22 21 21 23 21 21 21 21 21 21 20 19 18 18 17 16 15 13 16 15 13 11 9 8 10 19 12 13 11 10 11 9 11 10 11 9 8 11 12 13 14 10 10 15 17 16 16 16 18 18 19 19 17 15 17 20 22 23 24 24 24 25 25 26 25 21 23 22 23 22 24 27 27
14 16 17 17 18 14 14 14 15 17 18 21 22 22 22 21 18 18 21 21 21 21 19 19 18 18 17 16 15 13 13 18 14 11 9 10 12 17 13 13 10 11 11 10 11 10 10 12 10 11 12 14 12 9 10 15 17 17 16 18 19 19 20 20 21 21 17 20 22 23 24 24 24 25 25 24 23 18 20 24 23 22 24 24 30
15 15 16 15 17 17 15 15 16 16 19 20 18 18 19 18 19 18 20 20 20 20 20 20 19 17 16 15 11 14 13 17 14 13 11 9 14 16 15 12 11 12 12 11 11 11 11 16 13 12 11 13 9 9 10 15 17 17 17 18 19 20 21 23 24 24 23 22 22 22 23 20 22 21 19 17 20 20 21 22 22 22 25 25 26
16 15 14 13 14 18 18 19 18 19 20 17 16 19 17 15 16 18 17 18 18 18 18 17 18 17 16 16 16 16 15 16 20 13 12 10 12 19 15 13 13 11 12 11 10 12 10 12 17 10 8 8 9 9 9 11 16 18 18 17 19 21 23 23 22 22 22 22 22 22 22 22 22 20 19 19 19 19 18 22 23 24 24 24 23
16 15 15 15 18 21 18 20 21 19 18 19 17 16 17 19 19 18 19 19 18 18 19 17 18 17 16 16 16 16 16 15 20 16 12 11 9 12 16 13 12 12 12 13 15 12 13 11 13 13 9 9 9 10 10 10 11 19 18 15 17 22 21 23 22 19 21 21 21 20 21 21 21 20 20 21 20 18 18 16 17 17 19 21 22
17 16 16 16 16 16 16 15 16 16 16 17 18 19 20 20 21 22 23 22 23 24 22 21 20 18 16 17 16 16 14 12 15 16 13 12 10 11 16 11 12 13 13 13 13 11 10 10 11 13 8 9 9 10 10 10 11 21 16 13 15 15 22 21 22 20 20 21 20 20 20 21 22 22 22 22 21 22 21 21 18 17 17 19 20
18 18 18 18 15 16 16 19 19 15 17 19 18 19 20 22 22 24 25 25 27 26 23 21 19 19 18 18 17 17 16 18 10 15 15 12 12 11 11 13 5 14 15 14 11 11 9 9 13 12 8 8 9 10 9 11 16 14 13 14 14 15 19 21 17 18 19 19 20 20 20 21 22 23 23 24 24 23 24 22 22 20 18 19 20
18 18 17 17 17 16 16 16 16 15 17 19 20 19 20 20 21 21 23 25 24 24 23 23 21 20 21 19 18 18 18 16 14 11 16 15 12 11 9 8 7 14 15 15 12 11 11 8 13 7 7 8 8 11 11 12 15 12 12 14 15 16 20 17 15 18 17 18 19 21 22 22 22 23 23 24 25 25 25 23 21 20 20 18 19
18 17 18 18 17 16 16 17 17 18 17 18 19 21 19 17 20 18 21 22 20 21 24 23 23 22 21 20 19 18 18 18 17 17 12 15 13 11 10 8 9 8 16 17 15 11 11 7 6 7 7 8 11 14 14 15 14 12 13 15 18 19 15 15 16 18 18 19 20 20 21 21 22 22 23 24 23 22 22 21 20 19 20 13 10
17 18 19 18 18 18 18 17 18 17 18 19 21 22 22 22 23 21 19 21 23 23 21 21 21 21 20 20 19 18 18 17 17 19 16 12 11 12 11 10 10 12 16 17 10 6 5 4 7 10 13 15 19 17 13 13 12 12 14 17 18 14 15 16 16 16 17 18 19 20 22 23 24 23 21 21 21 22 23 23 22 20 16 11 11
19 19 19 19 17 17 18 20 19 19 19 20 20 21 23 24 25 25 27 27 28 26 28 24 21 21 20 19 18 18 19 18 18 18 20 20 20 18 20 18 13 10 17 19 13 15 16 14 11 7 9 7 9 9 10 12 19 20 17 14 13 13 15 16 16 16 16 18 18 19 19 21 21 21 22 22 22 22 23 21 20 18 14 12 13
20 21 21 19 19 18 19 17 21 20 21 22 22 23 24 25 27 28 29 30 28 27 25 23 20 20 20 19 19 18 19 19 19 19 20 20 20 20 21 19 20 19 20 17 15 12 13 9 12 17 17 18 19 18 17 13 11 11 13 13 13 13 13 12 12 14 14 16 16 17 17 19 20 22 21 22 22 23 23 21 19 17 16 13 14
20 21 22 21 19 18 18 19 20 21 21 23 24 24 25 26 27 25 25 28 27 25 21 20 19 20 21 21 21 20 20 20 19 11 19 11 18 19 20 20 18 17 10 9 10 11 13 14 14 13 13 12 11 11 10 11 11 11 11 13 13 14 14 15 16 16 19 18 19 19 19 20 19 20 20 20 22 22 23 21 20 18 15 15 17
20 21 22 21 20 19 19 19 19 20 21 22 24 24 12 7 13 25 25 16 19 20 16 23 23 22 22 22 21 21 20 15 13 16 13 14 9 7 10 11 12 12 11 7 9 15 14 13 12 12 11 11 10 10 11 11 12 12 12 10 12 14 15 14 15 16 18 16 16 18 20 19 20 22 21 21 22 21 21 16 21 18 17 17 17
21 22 21 20 19 19 20 19 19 20 21 22 22 24 23 15 8 7 8 15 21 19 17 15 14 16 21 23 15 16 17 16 17 16 16 15 12 10 9 8 9 10 10 12 14 15 14 13 12 12 11 10 9 9 10 10 11 11 12 12 12 13 13 14 15 15 15 15 15 15 17 19 19 20 20 20 19 21 21 20 19 19 19 17 18
21 21 21 20 20 19 21 21 20 19 21 22 23 23 24 22 15 10 12 6 16 17 20 13 12 14 13 11 13 13 11 12 15 16 15 15 13 11 10 10 11 11 10 8 11 11 10 13 10 10 8 7 6 7 9 10 10 11 12 12 13 13 14 15 16 15 15 16 18 18 19 20 19 17 17 16 16 18 20 20 20 19 18 19 19
21 21 20 21 21 20 22 22 21 21 21 22 23 22 24 22 21 17 13 11 7 7 9 9 10 13 12 11 14 11 13 14 16 16 16 15 14 12 12 12 11 10 10 13 13 11 10 9 9 7 7 7 5 6 6 6 8 8 8 9 12 11 13 14 12 13 13 14 14 16 19 19 19 16 13 15 17 19 17 19 19 19 19 20 20
23 22 21 21 20 23 22 22 21 21 20 21 21 23 23 23 24 20 17 12 12 7 4 6 9 11 11 12 13 13 16 18 17 17 17 16 14 15 13 16 10 11 11 13 13 12 11 10 9 8 8 6 6 6 6 6 6 6 6 6 8 8 9 13 13 15 14 14 14 14 14 15 17 18 17 16 15 15 17 17 18 19 20 21 21
26 22 17 14 22 22 22 22 20 18 19 20 21 21 21 20 19 18 20 21 20 19 17 14 10 12 18 14 11 15 18 18 19 18 18 16 16 16 13 19 16 17 17 16 14 13 11 11 10 10 9 8 8 6 6 5 8 7 7 7 7 8 8 10 10 11 14 14 14 14 14 14 15 14 14 15 15 16 17 17 17 17 18 18 20
25 25 25 23 22 21 21 20 19 18 19 19 18 18 17 17 18 21 19 17 18 19 17 18 17 10 10 10 13 15 17 19 18 18 17 17 18 19 22 18 19 20 19 20 16 14 11 11 10 10 9 9 8 8 7 7 8 8 6 6 7 7 8 9 11 10 9 10 12 14 13 14 15 14 15 14 14 15 15 16 15 15 15 16 17
24 26 26 29 28 20 19 18 19 19 12 18 17 17 17 17 17 17 15 16 17 18 19 18 18 16 10 13 15 12 15 16 16 16 16 17 21 24 20 19 19 19 18 18 16 14 12 12 11 10 10 10 9 10 10 9 9 8 7 9 7 10 9 10 10 7 10 11 13 14 14 14 14 14 13 11 12 15 15 14 15 13 16 15 9
25 29 25 25 25 23 19 19 18 11 16 16 16 16 15 15 15 15 16 17 17 17 18 19 14 21 24 22 19 17 19 12 13 10 10 11 19 23 21 19 17 17 16 17 17 16 16 14 14 14 14 13 13 12 12 12 12 11 11 11 10 10 8 13 14 13 11 11 11 11 11 11 13 11 10 11 12 11 12 13 12 13 13 14 14
24 21 21 15 15 23 20 19 17 17 16 14 15 14 15 14 14 16 17 17 18 18 17 17 20 20 23 23 25 21 24 24 24 22 23 24 24 24 22 20 19 18 17 16 15 16 15 15 14 14 13 13 13 12 12 12 12 11 10 10 10 10 14 9 10 11 9 10 9 9 9 10 10 10 10 10 11 11 10 12 12 12 13 14 14
24 27 15 13 23 19 14 17 17 17 15 15 14 15 14 15 17 17 18 19 19 19 21 20 20 23 24 25 25 27 28 26 26 25 24 24 24 23 23 22 20 19 18 17 15 16 15 15 14 14 15 14 13 13 13 12 12 11 11 11 7 7 7 7 8 8 8 8 8 9 10 9 9 8 9 11 10 9 10 11 11 11 13 13 12
22 22 17 16 15 23 13 15 15 16 17 15 14 14 16 16 15 14 15 16 17 18 20 20 21 22 25 26 23 25 28 27 25 24 24 24 24 24 23 22 21 20 19 18 17 17 16 15 15 15 15 15 14 13 13 13 12 12 12 8 7 5 6 8 7 7 7 7 8 8 8 8 8 9 11 10 7 8 9 9 10 10 10 10 11
24 22 20 22 20 19 15 15 15 13 12 12 14 15 14 14 14 15 16 16 16 16 17 17 18 19 16 26 26 26 26 23 23 22 23 23 23 22 22 21 21 20 19 19 18 18 17 17 16 16 15 15 15 14 14 14 13 13 13 10 9 8 8 8 6 6 6 7 7 8 8 8 8 8 8 6 8 9 9 11 10 10 10 11 11
22 23 23 23 24 22 15 15 14 15 14 13 12 9 11 14 15 15 15 15 15 15 16 17 15 13 14 18 24 21 23 21 13 21 21 22 22 21 21 21 20 20 17 15 14 16 16 16 15 15 15 15 14 14 15 14 14 12 11 12 8 9 8 7 8 8 7 6 7 7 7 7 7 8 8 8 8 9 11 10 10 10 10 11 10
21 22 22 22 19 23 21 13 14 13 14 12 11 12 14 14 15 14 15 14 16 16 17 18 16 15 14 17 16 19 22 21 20 21 21 20 21 21 21 20 20 19 19 18 17 16 16 14 12 14 13 14 14 12 14 13 13 12 9 10 9 7 8 8 6 5 6 6 6 7 7 7 7 7 8 7 8 10 10 10 10 10 11 11 11
20 24 24 23 20 17 20 14 14 14 13 13 13 13 13 14 14 15 15 16 13 14 15 15 15 14 15 17 19 21 22 23 21 20 21 21 21 21 18 19 18 19 19 18 17 17 16 15 15 11 12 15 14 13 14 13 12 13 12 12 10 12 10 9 8 6 6 5 7 6 6 6 7 8 9 9 8 9 11 10 10 8 12 12 13
16 17 18 21 20 20 23 25 16 14 14 15 14 14 13 14 14 15 15 15 13 12 12 12 13 13 15 16 18 18 20 20 21 22 21 21 21 21 20 19 19 18 16 15 16 17 16 14 13 14 14 14 16 16 16 14 14 13 12 12 12 13 12 12 11 9 8 6 4 5 6 6 8 8 7 8 9 11 11 10 11 12 12 13 13
16 16 19 19 21 18 21 23 24 22 18 15 15 14 15 15 15 14 13 14 14 13 13 13 12 13 14 15 16 17 18 18 19 19 20 19 19 18 16 16 18 17 18 18 17 18 17 17 13 13 14 16 17 16 16 17 17 16 14 15 14 11 13 14 14 13 12 9 8 3 5 6 8 8 7 8 9 11 11 11 11 11 12 12 13
16 19 20 18 20 19 19 21 21 15 21 19 15 16 15 16 15 15 14 14 14 14 13 12 13 13 12 14 13 12 13 14 14 14 14 15 16 15 15 15 15 16 16 17 17 17 16 17 17 17 17 18 17 18 17 17 17 17 17 17 16 14 12 7 15 12 12 12 9 9 10 9 8 8 8 9 9 10 11 12 11 12 11 12 11
20 21 22 22 22 22 21 20 17 18 19 19 19 17 14 14 14 15 15 15 15 15 15 15 15 14 14 14 12 12 11 10 12 13 14 15 15 15 15 16 15 17 17 17 18 18 17 18 17 18 18 19 18 18 19 18 18 18 17 17 16 13 8 5 8 12 7 9 11 11 9 10 11 9 9 10 10 10 11 10 11 12 12 12 13
19 19 20 21 21 22 22 21 21 21 20 19 20 20 18 16 14 13 14 15 16 15 15 15 15 15 15 14 14 14 14 15 14 14 14 14 15 15 16 17 17 18 18 18 18 19 19 17 18 18 19 18 19 19 18 19 18 18 18 16 16 12 8 8 7 6 10 11 12 11 10 11 12 13 12 11 12 12 11 11 11 10 12 13 12
18 20 20 20 21 21 21 22 21 22 21 21 21 19 19 19 17 15 14 15 16 16 16 16 18 16 15 15 14 15 15 16 15 14 12 12 13 14 15 15 16 16 16 17 18 19 19 19 19 19 18 16 19 19 18 18 19 16 14 19 15 12 11 9 13 10 11 10 12 12 9 10 11 10 9 10 12 12 9 11 10 11 11 11 11
Wind_Speed
9 9 8 10 10 11 10 10 10 9 9 9 8 8 8 8 7 6 7 6 6 6 5 4 4 3 3 2 2 2 2 3 3 5 5 5 4 4 5 4 5 4 3 4 4 4 5 7 7 7 7 8 8 8 9 9 9 9 9 9 10 10 11 12 13 14 10 7 9 10 10 11 11 11 13 12 11 11 12 13 13 11 11 11 12
8 9 9 10 11 11 11 9 9 9 9 9 8 8 8 7 7 7 7 6 6 6 5 4 3 3 3 2 2 2 3 3 3 4 5 5 3 2 3 4 4 4 4 5 4 4 5 6 7 7 8 9 9 10 9 9 10 10 10 10 10 10 10 12 12 12 13 9 9 9 10 10 11 10 10 11 11 11 12 12 11 12 12 11 11
9 10 11 10 11 11 11 10 10 10 10 9 9 8 8 8 7 7 7 6 6 5 5 5 4 4 3 3 3 2 3 3 3 4 4 3 4 4 3 4 5 6 6 6 6 5 6 6 7 7 6 7 8 8 9 9 9 10 10 9 10 11 10 11 12 13 14 12 11 11 10 9 10 11 11 10 11 11 13 13 12 10 10 11 11
9 8 7 7 8 9 10 11 12 11 11 9 10 9 8 7 7 7 7 5 6 5 4 5 5 4 4 3 3 3 3 3 3 3 3 3 4 5 4 5 5 6 6 6 6 6 6 7 7 7 7 7 8 7 7 7 7 7 8 8 9 9 9 9 10 11 11 12 10 10 11 11 11 10 10 11 12 11 11 11 11 11 11 11 11
7 9 10 12 11 7 8 8 11 11 11 10 10 10 9 8 7 7 6 6 5 5 5 5 5 5 4 4 3 2 3 3 4 2 2 2 4 5 6 6 6 6 6 6 6 6 7 7 7 7 7 8 7 7 7 7 7 8 8 8 8 8 8 8 9 10 11 12 12 10 11 11 11 11 11 11 11 11 11 11 11 11 11 11 11
8 8 9 11 11 13 11 10 11 12 12 11 11 10 9 9 8 7 7 6 6 5 5 5 5 5 4 3 2 2 2 2 3 2 3 3 4 5 6 6 7 7 7 7 7 7 7 7 7 7 7 7 7 7 7 8 7 8 8 8 8 8 8 9 9 10 11 12 12 12 10 11 11 10 10 11 11 11 11 11 12 11 11 10 9
9 9 12 13 12 13 13 14 13 13 13 12 10 10 10 9 9 9 7 6 6 6 5 5 4 4 3 2 3 2 3 3 2 2 3 3 4 5 6 7 7 7 7 7 7 7 7 7 7 7 7 7 7 7 7 7 7 8 8 8 8 8 8 8 9 10 11 12 12 11 11 10 10 10 10 10 11 11 11 11 10 9 9 10 11
9 11 13 14 13 12 14 14 13 13 12 12 11 9 7 8 8 7 7 6 6 6 6 6 5 4 3 3 2 2 3 2 2 2 2 2 4 5 6 7 7 7 8 8 8 7 7 7 6 6 6 6 6 6 6 6 6 7 6 7 7 8 8 8 9 9 10 10 11 11 10 10 9 9 9 9 9 9 8 9 10 10 10 10 11
11 13 14 15 16 15 14 14 13 12 11 11 10 8 8 7 6 6 6 6 5 6 6 6 6 5 4 4 4 3 2 1 1 1 3 3 3 5 6 6 7 8 8 8 7 6 6 5 5 5 5 6 7 7 7 7 6 6 7 7 7 8 8 8 8 9 10 10 11 10 10 10 9 9 9 9 9 9 9 10 11 11 11 11 10
9 11 13 14 14 14 14 13 12 13 11 11 9 8 8 8 8 6 7 7 7 6 6 6 6 5 5 4 3 2 2 1 6 7 5 5 5 5 5 6 7 7 7 6 6 5 5 5 4 3 5 5 5 4 5 6 7 7 8 8 8 8 8 9 9 9 10 11 11 11 11 11 10 10 10 10 10 10 10 10 11 11 11 11 10
7 9 10 11 12 13 12 11 12 14 12 9 8 8 8 8 8 8 7 7 7 7 6 7 7 6 5 4 4 3 3 4 9 7 6 4 3 5 6 7 7 6 6 5 5 5 5 4 4 4 4 4 4 8 7 7 7 7 7 9 9 9 10 11 10 10 10 11 11 11 11 12 12 11 10 11 10 10 11 10 10 10 10 11 11
7 8 8 11 10 10 10 11 12 12 12 12 10 9 8 8 8 9 8 7 7 8 9 9 8 6 4 4 4 4 2 9 9 8 6 5 3 4 6 6 5 5 5 4 4 4 4 4 4 3 3 4 6 4 8 10 10 8 8 10 12 13 11 9 9 9 10 10 11 11 11 11 11 10 10 10 10 10 10 9 10 11 11 11 10
7 9 8 10 9 8 9 10 9 11 12 13 11 9 9 9 9 10 10 9 8 9 9 9 8 7 6 6 5 4 4 10 10 8 7 4 2 5 7 5 5 5 4 4 4 4 4 4 4 4 3 5 5 4 5 6 4 9 13 13 14 15 13 11 12 10 10 11 11 12 10 11 11 10 10 11 11 12 12 12 11 11 11 12 11
7 8 8 8 8 9 8 9 9 12 12 11 8 9 9 10 10 10 8 8 9 9 10 10 8 8 7 6 5 5 4 10 10 8 7 4 4 6 7 4 4 4 4 4 4 4 3 3 4 3 3 3 3 3 6 7 8 8 7 6 5 4 8 14 14 14 13 9 10 12 12 11 12 12 12 10 11 11 11 12 12 13 13 13 14
6 6 7 7 7 7 6 6 8 8 8 9 8 8 9 9 11 10 9 10 10 11 11 10 9 8 7 6 5 5 5 12 10 9 7 4 5 7 7 4 4 4 4 4 4 4 4 3 3 4 3 3 5 7 7 7 8 7 6 6 6 6 6 6 6 5 5 7 10 12 13 12 12 12 11 11 11 11 11 13 14 14 14 15 14
5 4 5 5 6 5 5 7 8 8 7 7 8 9 10 11 13 11 10 9 10 10 10 9 9 8 7 7 6 6 7 12 10 9 7 5 6 7 6 4 4 4 3 4 4 4 3 3 2 3 3 1 8 8 6 7 8 6 5 5 5 5 5 4 4 4 6 8 10 11 12 13 14 14 14 13 12 12 11 11 10 10 11 11 12
4 4 5 4 5 5 4 6 7 7 9 10 11 11 11 11 10 10 10 10 11 10 10 9 8 8 8 8 7 5 7 10 11 9 7 7 6 8 4 4 4 4 4 3 4 3 3 3 2 3 3 3 8 8 6 8 7 7 6 6 6 6 6 2 9 10 9 10 12 15 16 17 18 19 18 19 14 11 9 11 11 10 9 9 10
3 3 4 4 5 5 4 5 6 7 9 11 11 12 12 11 9 7 9 9 10 10 9 8 8 8 8 8 6 5 5 11 12 10 8 8 8 7 5 4 3 4 4 3 4 3 2 4 3 3 3 3 10 6 5 7 7 7 7 7 7 6 6 5 6 6 7 12 15 16 17 17 18 19 19 18 17 12 9 11 11 9 10 9 10
5 5 4 4 4 4 5 6 7 6 6 7 7 8 6 6 6 7 7 9 9 9 9 8 8 8 8 7 7 6 4 10 11 11 9 8 7 7 5 4 4 4 4 4 4 3 4 9 7 1 3 6 5 3 5 7 7 7 8 8 7 7 5 8 9 9 9 9 7 6 7 11 12 10 9 14 17 13 10 10 10 10 11 10 10
6 5 5 5 4 5 5 6 7 7 6 3 2 3 5 6 8 7 6 6 5 6 7 7 8 7 7 7 7 7 6 7 11 11 10 9 9 8 6 4 5 4 4 3 2 4 3 2 9 8 5 3 1 3 4 5 7 8 8 7 6 7 8 10 9 9 9 10 9 6 7 7 7 7 7 7 6 6 7 7 8 8 9 9 9
6 6 5 5 5 5 5 6 8 8 8 7 6 6 7 8 8 8 7 6 7 8 8 8 8 8 7 7 7 7 7 7 11 13 11 9 8 7 6 5 4 4 4 4 5 4 4 3 4 8 6 4 2 3 6 5 8 8 8 6 6 8 11 10 10 11 9 9 9 8 6 7 7 7 7 7 7 7 7 7 6 6 8 9 9
7 6 6 5 5 5 6 6 6 6 7 8 8 8 9 9 9 9 8 7 7 10 11 10 9 8 7 7 7 8 8 8 7 12 11 10 8 8 7 4 4 4 4 4 5 3 2 2 2 7 5 2 1 4 5 7 8 9 3 6 8 10 9 9 9 8 7 7 7 8 7 7 8 8 8 8 8 8 9 9 8 8 8 9 9
8 8 7 7 5 5 5 6 6 5 7 8 9 9 9 10 10 11 11 12 14 14 12 10 9 8 8 7 7 8 7 8 6 8 12 10 10 9 9 8 4 5 5 5 4 3 1 2 5 9 4 1 4 5 6 7 11 3 6 8 11 12 12 8 7 6 6 6 6 6 7 8 8 8 8 9 9 10 10 9 9 9 9 9 10
8 8 8 7 7 6 6 6 7 7 7 8 9 10 10 10 11 9 11 12 12 12 11 10 10 9 9 8 8 7 8 6 10 9 10 12 10 9 8 7 6 6 6 6 4 3 3 1 6 5 2 3 5 8 9 9 6 7 9 10 12 12 8 7 5 5 6 6 6 6 6 6 8 7 8 9 10 10 10 9 9 9 9 9 9
8 8 8 8 7 6 6 6 7 7 7 8 9 10 11 8 6 8 11 11 10 11 11 11 11 10 9 9 8 8 7 7 7 10 10 12 11 9 8 7 7 6 6 7 6 1 7 6 3 2 5 7 9 10 10 12 11 10 10 12 12 7 4 5 5 5 5 5 6 6 6 6 7 7 8 9 9 9 9 9 8 8 9 6 1
8 9 9 8 8 7 7 7 8 7 8 8 10 10 11 11 11 9 9 9 8 10 9 9 10 10 9 9 8 8 8 7 7 8 10 9 9 10 9 8 8 9 10 9 7 3 3 3 2 6 9 9 8 7 5 1 9 11 11 11 8 4 4 4 5 5 5 6 6 6 6 6 6 7 8 8 8 9 9 9 9 9 8 5 4
10 9 9 9 8 7 7 7 6 7 8 8 9 9 11 11 11 12 12 12 13 12 13 12 10 10 9 8 8 7 8 7 7 8 8 8 8 9 9 8 10 8 8 8 8 6 6 7 4 2 7 4 6 8 8 8 9 9 7 5 3 3 3 4 5 5 5 6 6 6 6 6 6 6 7 7 8 9 9 8 8 8 6 5 4
10 11 11 10 8 8 8 6 8 8 8 9 9 9 10 11 13 13 13 14 13 13 12 11 10 9 9 8 8 8 8 8 8 8 8 8 8 8 9 8 8 8 8 7 6 4 4 7 7 6 7 7 7 7 7 5 3 3 2 3 3 2 3 7 9 5 4 5 6 6 6 6 6 6 7 7 8 8 9 8 7 7 6 6 4
11 12 11 10 8 7 7 8 7 8 8 9 10 11 11 11 12 12 14 13 11 10 9 8 8 8 8 8 9 9 9 8 8 9 9 9 8 8 9 9 7 7 4 8 1 3 4 5 5 4 4 4 3 3 2 3 2 1 2 3 3 3 4 4 4 4 4 5 5 6 5 6 6 5 6 7 7 8 9 8 7 7 6 6 6
11 11 10 9 9 8 8 8 7 8 8 8 9 10 11 5 7 10 11 11 13 12 13 11 11 9 10 10 10 9 9 6 12 14 12 12 8 4 8 9 10 7 9 4 3 5 5 5 4 4 3 3 3 2 2 2 2 2 1 1 3 2 4 3 3 4 4 5 5 5 5 6 5 6 6 6 6 7 7 7 7 6 6 7 6
10 10 10 9 8 8 9 8 8 8 8 8 8 9 8 6 5 6 7 9 14 15 12 13 13 14 11 10 7 13 14 13 14 13 13 13 11 8 7 8 8 9 8 4 5 5 5 4 4 4 3 3 2 2 1 2 2 2 2 2 2 2 3 3 4 4 5 4 5 5 5 5 5 5 5 5 5 6 6 7 6 6 6 6 6
10 10 10 9 9 8 8 9 9 9 8 8 8 8 9 9 4 7 10 4 13 15 17 12 6 5 4 2 7 5 7 10 12 13 12 13 11 10 9 8 8 7 6 3 4 4 4 5 3 3 2 2 1 0 2 2 2 2 2 2 2 2 3 3 4 5 5 4 4 3 5 4 5 5 5 4 6 5 6 7 7 7 6 6 7
10 10 10 9 9 9 9 8 8 8 8 8 8 8 8 8 9 4 3 8 5 5 8 7 7 5 5 3 4 8 10 11 13 13 13 12 12 10 9 9 9 7 5 4 5 4 3 3 3 2 2 2 1 1 1 1 2 1 1 1 2 2 3 3 4 4 3 3 5 3 4 4 4 3 3 3 5 5 5 5 6 7 7 7 7
12 10 9 10 9 9 9 8 8 8 8 8 8 8 8 8 10 6 7 4 2 3 3 2 4 6 4 6 7 11 13 14 14 14 14 13 12 11 10 7 6 8 7 4 4 4 3 3 3 3 2 1 1 1 1 1 1 1 1 1 1 1 1 3 3 2 4 3 3 3 3 4 4 4 4 4 4 4 4 5 5 5 6 7 8
10 14 16 11 9 9 8 8 7 7 6 7 8 9 9 9 9 6 7 8 8 8 5 2 2 5 5 6 7 12 14 14 15 15 15 13 13 12 11 7 6 6 7 6 5 4 4 3 3 3 3 2 2 2 1 1 2 2 2 1 1 1 1 1 1 2 3 3 2 3 3 4 3 4 4 3 3 2 3 5 5 5 5 6 6
13 10 9 12 11 7 7 6 6 6 6 7 7 8 7 7 5 9 8 7 7 7 6 7 5 3 4 3 7 11 14 15 15 15 14 14 14 15 9 7 8 8 8 8 6 5 4 3 3 3 3 3 2 2 2 2 2 2 1 1 1 1 1 1 2 1 2 2 1 2 3 2 3 3 3 3 3 4 4 5 5 5 5 5 5
8 8 7 11 14 8 6 6 6 5 5 7 7 7 8 8 8 8 6 5 7 7 7 6 7 5 5 6 8 9 12 13 13 13 13 14 16 12 8 8 8 8 8 8 6 5 4 3 3 3 3 3 3 3 3 3 2 2 2 2 1 2 1 1 2 1 2 1 2 2 2 3 2 3 3 2 2 4 4 4 6 4 5 5 4
8 8 7 10 12 12 8 7 6 3 6 7 7 7 7 7 7 5 4 5 7 6 6 7 8 8 9 8 11 9 8 10 11 9 8 9 9 10 9 8 7 7 7 7 7 6 6 5 5 5 5 5 5 4 4 4 4 3 3 3 3 2 2 3 7 4 2 3 1 1 1 2 2 1 1 2 2 2 2 3 2 3 2 2 3
8 8 11 11 12 10 7 6 5 5 6 6 6 6 6 6 7 5 4 5 6 6 4 4 8 7 7 7 9 10 13 10 10 9 10 10 10 10 9 8 8 7 7 6 6 6 6 6 5 5 5 5 5 4 4 4 4 3 3 2 2 2 5 2 0 1 1 1 1 0 1 1 1 1 1 1 2 2 2 3 3 3 3 3 3
9 6 5 9 12 10 4 6 5 5 5 6 6 5 5 6 7 7 5 6 6 7 7 5 6 6 9 10 11 12 12 12 12 11 11 11 11 11 10 9 9 8 8 7 6 6 6 5 5 5 5 5 5 5 4 4 4 4 3 3 2 2 1 1 0 0 0 0 1 0 1 1 1 1 1 1 1 2 2 2 3 3 4 5 3
9 8 6 6 9 11 6 5 4 3 5 5 5 5 6 6 7 6 5 5 6 6 7 7 8 10 12 15 19 18 13 12 11 11 11 11 11 11 10 10 9 9 8 8 7 7 6 6 6 6 6 6 5 5 5 4 4 4 4 2 2 1 2 1 1 0 0 0 1 1 0 0 1 1 1 2 1 1 1 1 2 2 2 2 3
10 10 9 8 11 10 5 4 4 3 3 4 4 4 5 5 6 6 6 6 5 5 5 7 7 9 9 22 22 22 13 10 10 10 10 10 10 10 10 9 9 9 8 8 8 7 7 7 6 6 6 6 6 5 5 5 5 4 4 3 3 2 2 2 1 1 1 0 1 0 1 1 2 1 1 3 1 1 1 1 1 1 2 2 3
11 10 10 8 9 11 5 4 3 3 3 3 3 3 4 4 5 6 6 5 4 5 4 4 3 6 4 15 17 18 11 9 9 10 10 10 10 10 9 9 8 8 8 6 5 7 7 6 6 6 6 6 6 5 6 5 5 4 3 4 2 3 2 2 2 2 2 1 1 1 0 1 2 0 1 0 0 0 1 1 0 1 2 2 2
9 10 10 11 7 8 10 5 4 4 4 3 4 3 3 4 5 5 7 7 6 6 5 6 4 4 3 6 8 9 9 9 8 9 10 9 9 9 9 9 9 8 8 8 7 7 6 5 4 5 6 5 5 5 5 5 5 4 3 3 3 3 2 2 2 1 1 1 2 2 2 0 1 1 1 0 0 0 1 1 0 1 1 2 2
8 10 10 10 9 7 9 6 4 4 3 3 3 2 2 4 4 5 6 6 6 5 5 5 5 6 5 7 8 9 10 10 9 9 9 9 9 9 7 8 8 8 8 8 7 7 7 6 6 4 5 6 6 6 5 5 5 5 4 4 3 4 3 3 2 2 2 1 2 2 1 1 1 0 1 2 1 0 1 1 1 2 1 2 2
6 7 8 10 9 5 8 12 9 5 5 4 4 4 3 4 4 5 6 7 5 5 5 5 6 6 6 7 7 8 8 9 9 10 9 9 9 9 9 8 8 8 6 6 6 8 6 5 5 5 5 5 7 7 6 6 6 5 4 4 4 5 4 4 4 3 2 2 1 1 2 1 0 1 3 1 1 1 2 2 1 1 2 2 3
6 7 8 8 8 7 5 4 9 11 8 5 4 4 4 5 5 5 5 6 6 5 6 5 4 4 5 5 6 6 7 8 8 8 9 9 9 8 7 7 8 8 8 8 8 8 8 7 5 5 6 7 7 7 7 7 6 6 6 5 5 3 4 5 5 5 4 3 2 0 0 1 2 2 2 0 2 2 2 2 2 2 2 3 3
7 8 8 8 9 8 5 3 3 5 9 9 6 5 5 4 5 5 5 5 6 6 6 5 5 5 5 4 3 4 6 6 7 7 6 7 7 6 6 7 7 7 7 8 8 8 7 8 8 7 8 8 8 8 7 7 7 7 7 6 6 4 4 5 6 4 4 4 3 3 3 2 2 2 2 2 1 3 3 4 3 3 3 3 3
9 9 9 10 10 10 9 9 8 8 7 8 8 7 5 4 4 5 6 5 5 6 6 6 5 5 6 7 5 4 2 1 3 3 4 4 5 6 7 7 8 7 8 8 8 8 8 8 8 8 8 8 8 8 8 8 7 8 7 7 8 11 6 1 4 3 3 2 4 3 2 3 3 2 2 2 2 2 2 2 2 3 3 3 3
8 9 9 10 9 10 10 9 9 9 8 8 8 9 8 6 4 2 4 5 6 6 6 6 6 6 6 6 6 6 6 5 6 5 4 5 5 6 7 8 8 8 8 8 8 9 9 8 9 9 9 8 9 8 8 8 8 7 8 6 13 9 6 3 2 2 3 4 4 4 3 4 4 5 4 3 4 3 4 3 3 3 3 3 3
8 9 9 9 9 9 9 9 9 9 9 9 9 8 8 8 7 5 3 3 5 5 5 6 6 6 7 6 6 6 6 7 7 6 6 5 5 6 6 7 7 8 8 8 8 9 9 9 9 9 9 7 8 8 8 8 8 6 10 15 12 10 8 6 6 6 6 7 3 4 3 3 3 3 3 3 4 4 3 4 3 3 4 3 3
Wind_Direction
175 171 186 196 193 191 192 198 193 184 175 171 171 172 167 170 170 172 176 181 169 176 177 183 187 199 207 212 251 247 293 297 322 317 317 318 320 328 318 315 313 316 326 309 285 288 293 289 289 282 274 273 278 277 272 272 273 274 273 274 273 273 271 273 276 282 283 282 285 287 289 291 284 280 282 283 285 285 281 278 278 277 276 274 275
167 177 191 202 198 191 190 195 195 189 183 179 181 174 171 173 170 178 180 180 179 179 184 173 197 210 228 234 221 268 288 313 313 319 317 318 315 301 310 319 316 312 309 301 301 293 289 284 280 278 280 280 281 280 279 276 278 279 279 277 279 279 277 278 281 283 287 289 287 290 292 292 289 290 287 291 291 293 292 290 284 278 276 276 275
185 185 182 200 203 195 191 193 197 197 190 190 190 182 175 174 176 183 187 179 185 186 181 179 195 209 215 227 252 282 295 311 315 313 314 314 314 305 310 311 314 312 308 308 304 305 297 290 287 287 287 283 281 280 282 279 278 277 277 276 272 272 274 276 280 281 286 289 294 295 292 293 293 299 299 295 295 293 290 286 283 281 278 279 279
187 188 176 193 215 215 204 200 203 203 201 198 195 190 183 180 183 189 191 184 183 185 178 192 187 205 220 229 245 252 286 297 298 308 325 327 307 307 307 300 303 309 306 304 308 304 298 294 289 286 282 279 280 282 283 284 281 276 275 275 276 275 276 277 275 279 286 288 289 290 293 295 293 294 297 300 297 292 289 291 288 283 281 277 274
183 189 191 202 197 206 228 218 213 207 207 201 196 194 192 189 187 191 187 188 187 177 186 191 200 206 204 235 245 254 277 300 311 297 265 278 304 308 310 313 312 302 301 299 293 290 289 286 287 287 286 282 280 276 277 280 280 280 281 282 283 285 283 281 281 281 282 284 289 290 292 290 291 294 297 297 299 298 297 292 296 297 295 293 292
205 190 194 203 199 195 211 221 222 211 210 207 198 197 194 192 184 190 189 190 182 188 191 192 211 208 208 217 253 271 275 296 298 307 294 292 298 303 303 304 303 301 299 296 296 296 290 287 286 282 280 277 278 277 279 280 281 280 282 283 284 285 283 281 279 279 280 284 288 292 290 291 293 292 295 295 297 300 300 300 299 295 284 277 274
208 202 207 212 209 209 211 220 222 222 216 212 206 202 194 188 185 187 181 184 183 193 187 199 209 227 212 212 241 254 288 301 299 273 283 294 302 309 303 300 298 299 297 294 294 292 289 288 290 287 279 275 278 282 284 285 282 282 282 283 283 282 283 282 282 282 282 285 286 285 290 289 290 293 295 299 296 292 295 297 294 297 307 315 310
216 216 214 214 213 212 218 220 222 221 218 213 204 192 182 181 189 179 168 179 185 191 190 198 200 216 205 217 218 248 252 233 248 287 295 307 314 307 304 300 297 298 298 296 291 288 288 284 280 283 282 282 291 296 291 284 292 291 291 289 290 290 289 291 290 289 288 287 288 294 293 294 292 289 295 297 298 296 293 301 306 308 303 301 297
230 228 223 221 220 215 215 219 219 216 208 207 197 184 180 173 170 164 160 171 188 191 191 202 201 212 200 208 221 205 246 260 259 336 315 309 305 299 300 299 296 295 295 296 297 296 293 295 290 289 319 316 310 299 306 315 300 294 297 301 300 296 294 293 290 291 291 290 290 291 292 292 294 297 300 300 300 303 306 304 295 295 294 293 292
235 234 230 226 222 217 217 217 220 218 205 197 184 179 180 173 168 167 174 181 182 183 184 204 209 210 211 208 215 214 214 222 86 65 20 339 327 314 301 294 296 299 298 297 297 295 292 291 290 314 295 285 280 264 243 260 284 295 302 305 304 300 294 291 290 289 289 288 289 293 292 292 296 299 297 297 298 298 295 293 294 299 299 294 292
245 242 240 236 224 224 226 221 215 218 206 184 175 179 179 173 173 171 177 184 175 161 177 200 207 211 212 212 209 214 218 110 104 105 99 42 307 300 298 294 293 292 288 293 293 294 294 292 296 291 282 276 265 193 224 222 229 249 279 292 294 291 286 284 285 287 286 287 289 289 291 293 294 297 296 298 298 299 301 302 298 297 296 300 299
249 253 250 254 240 226 224 222 219 215 203 194 185 180 174 174 174 173 173 176 171 170 189 201 201 201 207 211 214 220 188 115 130 122 114 96 356 303 295 287 287 280 285 288 286 289 288 287 289 296 296 321 315 277 217 213 216 225 237 244 249 251 250 267 285 286 287 290 289 289 292 291 295 296 297 301 304 315 313 307 299 298 296 291 290
258 262 259 256 258 249 235 231 229 226 216 210 192 169 172 173 177 179 184 181 167 182 193 196 194 192 198 207 212 209 169 136 134 142 130 143 168 276 270 278 275 279 286 280 283 284 292 295 297 298 302 304 298 304 314 317 263 215 226 236 240 242 245 242 240 261 285 282 285 289 290 295 296 296 301 304 307 299 298 292 291 292 291 289 286
261 264 263 262 259 250 238 238 230 231 222 201 165 167 168 176 180 186 184 171 177 188 196 195 193 194 197 204 212 206 171 141 144 145 142 164 216 253 272 273 276 279 277 280 273 271 280 295 296 291 293 310 306 325 332 321 320 317 308 304 313 282 218 213 217 227 240 266 279 283 287 288 289 295 298 302 301 300 300 297 298 292 289 286 293
256 262 267 270 271 266 262 251 252 248 199 170 169 172 175 178 185 190 186 178 186 194 192 193 193 192 191 200 209 202 138 140 146 151 150 184 222 256 258 255 256 257 255 254 263 269 275 270 279 285 303 314 53 21 338 331 322 313 307 312 316 309 306 300 282 285 268 270 286 289 290 290 289 294 300 303 302 299 295 295 294 293 291 290 286
278 274 272 269 265 257 248 243 238 212 176 168 173 183 185 190 192 193 188 185 192 195 192 193 189 189 192 195 202 203 135 147 145 155 156 195 230 244 241 243 249 252 247 247 253 255 261 270 276 273 293 345 71 54 26 330 311 305 303 310 307 303 295 265 251 243 266 293 296 295 294 292 292 288 286 289 290 289 290 288 286 279 279 283 288
297 286 277 269 261 255 245 250 238 226 208 190 189 192 194 194 192 196 184 185 192 194 190 190 189 193 190 194 193 202 148 153 151 160 171 197 234 243 241 242 238 242 247 236 243 244 247 251 247 261 283 64 57 45 15 327 304 296 305 305 302 302 307 3 163 198 205 221 234 245 254 262 265 269 268 264 257 266 286 286 278 278 279 280 284
314 305 288 286 274 264 247 234 235 222 214 215 213 210 201 194 184 178 186 189 197 194 188 189 192 192 191 190 193 196 178 151 160 161 176 195 248 267 241 234 230 247 236 227 245 247 154 125 285 277 278 49 46 28 352 314 303 304 305 307 303 298 298 323 325 297 240 221 229 239 246 252 255 255 258 259 257 248 256 275 281 285 279 280 285
333 328 317 296 264 248 236 236 222 227 229 223 207 177 171 163 142 153 187 212 206 197 192 194 191 192 188 193 157 192 182 148 163 162 185 190 224 242 250 251 228 227 237 220 223 239 190 170 180 310 328 23 15 346 317 306 302 307 308 302 302 307 327 333 317 309 318 317 306 282 263 240 238 246 255 238 235 230 235 259 276 279 282 280 280
331 327 314 303 285 260 222 210 220 223 200 165 104 164 152 150 168 195 199 210 207 200 193 202 192 195 183 186 169 196 208 174 163 169 177 191 230 264 270 247 242 222 234 272 242 184 212 177 147 116 123 136 292 288 298 292 294 302 302 297 313 313 336 319 305 304 312 308 312 304 298 305 298 297 299 299 275 243 260 282 286 284 283 282 279
325 318 313 297 278 256 237 226 217 208 202 198 174 173 181 184 180 180 179 189 187 200 192 203 198 196 185 188 186 193 201 202 156 171 173 191 207 244 253 250 252 251 241 216 228 225 206 214 135 132 157 119 286 309 281 282 282 287 284 309 329 329 314 294 296 286 289 303 311 315 321 324 320 321 322 315 312 310 303 296 295 286 282 279 282
311 304 292 294 289 270 249 241 238 224 210 206 195 192 190 187 189 188 173 183 196 217 207 201 199 192 189 189 195 197 182 204 164 166 172 182 202 225 260 259 353 291 272 247 245 234 233 227 130 118 111 117 293 280 282 275 271 268 341 1 303 291 283 289 286 291 302 304 313 316 330 332 335 334 331 329 326 323 319 314 311 305 288 275 273
311 309 305 295 282 266 257 238 226 219 210 201 197 194 190 192 190 186 191 194 202 209 201 198 196 193 193 193 195 196 188 180 202 172 172 184 194 215 243 282 18 287 270 270 267 259 218 239 99 90 80 191 256 260 266 275 265 276 358 297 288 280 276 267 284 294 302 310 306 314 325 335 337 334 334 332 330 326 320 317 312 304 293 282 266
319 311 305 296 287 275 260 249 233 227 214 206 206 204 194 195 196 194 198 202 203 203 199 197 197 198 196 196 195 193 190 194 172 189 171 184 186 209 221 240 283 267 288 270 272 255 237 113 74 89 141 238 256 256 251 245 278 322 282 278 272 273 271 283 291 309 304 296 312 325 331 335 336 334 335 333 328 324 322 324 322 318 309 288 268
322 314 308 304 294 282 269 256 244 235 225 207 211 217 216 187 179 199 203 207 209 211 207 196 199 199 199 198 196 193 187 193 172 176 172 172 190 196 213 225 239 253 264 247 259 360 61 58 65 258 239 234 248 257 245 234 245 253 257 265 271 272 290 318 318 315 307 316 324 328 328 344 335 334 333 328 324 328 335 334 336 327 308 298 353
316 316 313 307 300 291 277 262 250 238 229 222 218 221 217 191 198 196 199 197 189 203 208 206 200 201 199 203 196 192 185 186 190 166 174 168 187 193 211 211 224 226 249 289 360 53 98 126 180 237 235 236 244 239 263 185 201 235 250 256 268 302 322 325 329 318 321 324 323 321 331 335 337 336 328 334 344 347 349 344 341 341 333 339 19
306 305 307 305 299 286 276 274 266 243 232 229 225 222 224 218 208 201 200 207 207 203 201 202 198 200 204 201 198 191 186 189 191 179 179 185 196 188 193 208 212 225 231 234 219 221 181 209 231 238 302 306 274 287 274 252 245 237 231 233 292 320 331 339 339 320 315 320 319 321 326 331 324 332 338 348 354 358 1 349 347 343 330 341 30
300 302 302 302 298 298 289 265 256 264 252 244 243 236 222 219 224 213 210 211 202 203 201 196 194 194 200 199 198 198 194 198 193 190 184 187 191 190 193 199 199 204 217 213 205 205 189 189 211 222 217 222 223 219 219 231 258 270 308 312 310 329 293 250 242 272 311 321 314 316 316 326 329 357 328 11 357 2 5 360 0 351 348 348 13
292 293 296 296 293 294 289 288 279 268 262 250 243 244 243 235 229 226 220 213 195 185 182 187 187 193 194 198 202 206 211 204 200 185 184 179 189 192 192 199 196 206 83 36 296 212 221 229 225 218 220 233 234 239 228 249 260 293 266 312 314 323 340 350 346 341 335 317 319 319 323 330 332 353 337 9 4 14 10 6 13 8 7 17 28
293 295 295 294 298 299 300 296 285 271 264 265 259 249 236 233 272 250 226 188 188 189 188 184 187 190 197 206 209 215 215 204 132 148 152 162 180 63 51 51 54 60 90 82 291 250 226 231 221 224 218 226 231 238 254 275 289 295 307 8 278 355 340 325 340 343 335 308 316 319 335 326 337 351 359 3 5 18 37 22 18 16 22 20 20
298 299 298 297 307 306 300 296 296 290 277 265 257 261 256 166 107 33 350 186 187 194 203 212 202 201 203 205 88 74 87 103 136 148 151 160 162 141 119 107 114 118 136 159 209 230 229 223 216 216 215 232 229 243 268 260 264 281 311 330 317 347 326 327 356 335 309 314 321 327 331 338 340 354 354 12 353 19 29 35 31 26 29 22 25
294 299 300 301 301 294 296 295 294 287 281 276 268 262 257 251 160 70 23 296 204 197 194 192 177 182 196 129 140 105 101 127 138 151 156 156 159 150 140 139 135 143 168 260 250 229 224 227 220 220 206 231 212 249 257 274 278 290 300 313 331 353 333 347 351 313 311 320 325 341 334 345 343 348 347 4 332 27 24 38 44 47 49 53 41
285 288 290 292 294 289 287 287 284 285 283 280 278 269 257 258 251 186 89 32 23 202 187 163 161 166 171 160 162 155 160 152 150 151 156 157 154 156 150 150 152 152 147 202 231 229 218 227 226 202 209 214 213 215 231 251 259 265 273 299 315 338 342 337 287 288 304 333 305 350 337 348 346 333 340 5 346 31 31 37 45 51 57 64 64
284 278 279 293 295 295 292 293 289 285 285 281 281 278 274 265 262 210 168 183 136 38 27 124 157 145 162 188 159 135 142 149 153 154 154 158 154 148 149 152 150 172 215 237 226 229 215 214 211 204 203 206 212 196 221 226 235 259 260 254 285 318 317 291 284 314 308 301 312 360 336 345 355 347 356 2 16 3 33 47 39 50 56 59 63
296 300 300 274 279 292 293 293 291 289 283 283 281 272 269 270 268 251 185 191 191 186 172 150 162 190 186 182 169 146 149 153 155 156 156 154 152 147 148 151 171 199 219 236 243 232 218 210 208 197 202 195 199 206 214 209 237 229 247 253 256 279 303 305 319 314 309 312 332 352 352 324 9 349 337 10 14 44 26 34 49 39 55 67 71
305 301 314 288 266 278 291 291 294 290 285 278 271 269 272 269 255 249 230 195 186 187 178 180 171 177 199 206 169 155 152 156 158 158 157 155 152 157 173 194 196 203 208 207 218 222 221 214 207 198 196 196 193 200 208 201 214 225 226 246 247 258 264 310 299 301 296 300 341 335 314 353 6 5 6 12 22 36 43 55 51 31 20 37 54
303 309 306 303 302 309 301 299 287 290 291 286 282 268 258 256 255 243 222 186 197 203 195 150 131 133 181 178 165 158 150 154 155 154 155 159 165 179 204 203 212 206 205 204 202 206 209 208 211 201 195 197 198 198 198 208 196 211 201 244 242 257 303 357 351 311 299 311 318 349 340 1 12 35 2 26 25 46 43 73 87 62 49 336 321
303 308 316 306 298 292 296 294 296 305 282 276 270 266 257 248 233 213 199 190 192 197 180 162 163 161 171 178 159 159 141 127 123 128 145 155 174 205 218 226 226 225 211 208 197 200 207 205 199 202 195 196 198 198 195 201 197 206 195 197 217 114 69 241 228 240 287 291 316 345 356 358 5 29 22 44 34 46 53 24 64 95 88 48 59
311 323 320 304 289 292 300 305 307 297 292 284 275 262 249 232 222 209 199 194 185 184 222 170 165 163 173 156 156 145 140 163 178 183 181 187 194 204 216 219 220 222 221 213 194 203 208 204 196 198 198 197 192 197 199 200 193 201 196 211 217 185 191 236 213 298 283 318 299 338 359 10 3 25 3 42 69 45 57 60 45 59 73 63 54
311 314 296 274 283 283 290 294 295 292 293 290 286 270 240 230 219 205 190 195 200 186 199 174 169 187 193 176 162 167 181 183 189 189 188 190 196 202 209 216 216 214 210 212 202 201 207 206 194 194 198 197 192 198 197 194 192 191 191 213 207 193 203 221 221 238 285 291 322 350 36 356 2 352 38 45 43 61 57 69 70 54 56 75 75
315 310 301 299 293 290 278 275 284 316 314 300 289 270 254 244 229 208 192 195 210 205 203 201 200 204 202 172 173 176 187 190 190 194 191 195 195 200 205 211 213 210 208 207 204 202 202 202 195 195 193 194 190 191 194 192 193 192 200 178 204 202 189 157 188 183 204 269 338 342 34 355 358 360 38 70 76 314 81 77 92 88 87 76 93
314 314 312 312 279 261 288 296 318 319 289 295 289 280 260 237 234 220 205 195 209 212 212 213 217 227 183 159 173 181 194 197 194 194 195 194 198 200 203 207 209 210 207 205 201 200 197 201 196 195 193 188 188 187 187 190 194 198 189 196 187 184 210 172 167 116 251 201 139 354 22 25 15 32 67 327 337 56 51 48 72 78 79 81 70
316 316 319 306 305 296 297 311 309 313 322 316 318 293 265 253 242 226 216 206 211 220 236 241 235 257 176 167 175 183 207 212 199 200 198 196 197 199 199 204 205 206 207 205 200 196 196 196 196 194 191 187 188 187 190 191 192 197 191 190 188 180 198 180 158 185 189 175 137 101 264 249 236 202 54 44 26 21 71 94 103 106 119 119 125
318 324 320 315 321 321 305 305 320 323 331 8 326 302 275 261 249 234 227 218 212 212 221 228 227 230 165 168 164 182 211 228 223 211 203 201 198 199 201 201 203 200 199 201 196 193 191 193 191 190 182 183 184 183 195 191 188 197 192 178 187 182 190 183 187 174 213 170 144 178 184 141 301 202 134 91 128 126 119 55 41 56 66 89 83
331 323 321 318 323 317 307 312 318 324 317 292 278 272 247 257 247 242 238 232 216 211 214 221 221 236 184 163 179 188 202 215 222 225 213 206 204 201 203 201 195 194 196 195 193 187 191 187 188 184 179 181 175 182 195 188 186 194 197 184 178 178 197 180 183 153 143 193 191 179 190 179 185 182 135 139 138 194 122 134 85 89 82 96 109
316 307 303 306 317 344 331 322 325 319 316 312 308 307 303 278 263 247 235 231 224 207 207 215 221 234 218 181 181 190 201 212 215 215 221 217 212 206 203 195 186 184 189 190 184 182 186 188 184 186 179 187 177 184 190 182 188 192 196 194 191 180 177 165 153 160 168 190 235 160 151 144 167 37 12 327 117 58 73 76 112 98 93 96 87
325 299 305 320 334 338 316 341 331 328 322 325 324 317 303 290 287 278 256 229 221 218 218 205 211 227 233 217 188 183 200 213 220 215 213 218 216 204 188 180 174 180 180 180 172 175 179 182 188 181 185 190 183 186 188 181 187 185 191 195 192 171 174 163 161 176 174 175 180 222 155 164 132 141 160 238 117 120 126 115 101 106 117 106 118
335 340 344 343 339 337 329 298 268 295 309 318 338 336 320 312 301 283 274 247 223 224 226 213 203 213 215 239 247 214 199 207 218 227 216 207 200 185 169 163 163 170 174 168 169 172 175 178 184 184 181 190 185 188 193 185 188 183 187 193 189 181 119 140 164 177 169 169 178 144 157 189 151 146 133 160 138 136 149 135 148 130 129 131 115
346 345 345 348 345 342 344 339 336 326 329 335 334 326 336 325 307 297 282 263 247 227 223 221 213 209 219 217 214 214 230 224 209 213 223 223 214 198 179 173 171 175 172 168 163 167 171 177 181 184 184 187 189 191 192 194 181 191 181 196 110 95 114 310 314 107 60 180 170 181 160 141 136 135 129 139 137 148 122 116 119 117 125 122 135
336 338 337 339 339 339 340 339 339 336 334 330 333 330 330 320 311 280 281 281 267 249 237 231 223 217 216 221 218 217 208 205 207 204 199 203 206 202 196 179 175 177 177 172 171 168 173 175 180 186 187 189 187 193 192 193 195 177 199 138 115 124 123 153 14 29 234 198 169 191 156 148 147 157 156 152 142 126 128 132 134 140 124 130 136
330 329 328 331 332 334 336 338 338 334 332 334 330 329 326 323 324 326 309 287 283 270 242 229 226 223 221 219 211 211 217 217 206 198 192 197 205 204 194 180 174 176 174 170 170 170 175 176 180 182 186 186 189 187 195 185 198 183 111 117 132 132 148 167 188 194 252 290 247 164 171 153 160 157 164 157 150 141 130 132 149 146 151 144 131